Wind_Speed
25 25 25 25 25 25 25 26 27 27 27 29 30 31 31 32 33 33 34 34 35 36 37 38 39 40 41 43 43 44 45 46 47 47 48 48 48 47 46 45 44 43 43
25 25 25 25 24 24 24 25 27 28 29 30 31 32 33 33 34 34 35 35 36 37 37 38 39 41 42 43 43 44 44 45 45 45 44 44 43 42 40 40 39 39 39
24 25 23 23 24 24 25 26 28 29 28 29 30 30 31 31 32 33 34 34 35 36 37 38 39 40 41 41 41 41 41 41 41 40 39 38 37 36 36 36 36 36 36
23 23 23 23 23 24 24 25 25 27 27 28 28 29 30 31 32 33 33 34 34 36 37 37 38 38 38 38 38 38 37 37 37 36 35 34 34 33 33 33 33 33 34
21 22 22 22 23 24 24 24 25 27 27 28 28 29 30 31 31 31 32 33 33 34 35 35 35 35 35 35 35 34 34 34 33 33 32 32 31 31 31 31 31 31 31
20 21 21 22 23 22 23 24 26 26 27 28 29 30 31 30 31 31 32 32 32 32 32 33 33 33 33 33 33 32 32 31 30 30 29 29 29 29 29 29 29 29 29
20 20 21 21 22 23 24 24 25 25 26 27 27 28 29 29 29 29 29 29 29 30 30 30 30 30 30 31 30 30 29 28 27 27 27 27 27 27 27 27 27 27 27
18 18 19 19 20 21 21 21 23 23 24 24 24 25 25 26 26 26 26 27 27 28 28 28 27 28 28 28 27 26 26 25 24 24 24 24 24 25 25 25 24 24 23
16 17 18 19 19 19 19 20 20 21 21 22 22 22 23 24 24 25 25 26 26 26 25 25 25 25 25 24 24 23 22 22 22 22 22 22 23 23 22 22 21 21 21
16 17 17 17 18 18 18 18 18 19 19 20 21 21 22 22 22 23 23 23 24 24 24 24 23 23 22 22 21 20 20 20 20 20 20 20 20 21 20 20 19 19 19
14 15 15 15 15 16 17 17 17 18 18 19 19 19 20 20 20 20 20 20 21 21 20 20 20 20 19 19 19 18 18 19 19 19 19 19 19 18 18 17 16 16 16
12 12 13 13 14 14 15 15 16 16 16 17 17 17 17 17 17 17 17 17 18 18 17 17 17 17 17 17 16 16 17 17 17 18 18 17 17 17 15 15 14 14 14
10 11 12 13 13 13 14 14 14 15 15 14 14 14 14 14 14 14 15 15 15 15 15 15 15 15 15 15 15 15 15 16 16 16 16 15 15 14 14 13 12 11 12
9 10 11 11 12 12 12 12 12 12 12 12 12 12 12 12 12 12 12 12 12 12 13 13 13 13 13 13 14 14 14 14 15 14 14 13 13 12 12 11 10 10 10
8 9 9 9 9 9 9 8 9 9 9 9 9 10 10 10 10 10 10 9 10 10 10 10 11 11 12 12 13 13 13 13 13 12 11 11 11 10 9 9 8 8 8
6 5 5 6 6 6 6 6 6 6 6 6 7 7 7 7 7 7 7 7 7 8 8 9 10 10 11 11 11 11 11 11 11 10 9 9 9 8 8 7 7 7 7
4 3 3 3 3 3 3 3 3 3 4 4 4 5 5 5 5 5 6 6 7 7 8 8 9 9 10 10 10 10 10 9 9 8 8 7 7 6 6 6 6 5 5
5 4 3 3 3 3 2 2 2 3 3 3 3 3 3 4 4 4 5 6 6 7 7 8 8 9 9 9 9 9 8 8 7 6 6 6 6 5 5 5 5 4 4
6 6 5 4 4 4 3 3 3 3 3 3 3 3 3 3 4 4 5 6 6 6 7 7 8 8 8 8 8 7 7 6 6 5 5 4 4 4 5 4 4 5 5
8 8 7 7 6 6 5 5 5 5 5 5 4 4 5 5 5 5 6 6 6 7 7 7 8 8 8 8 7 7 6 5 5 4 4 4 4 4 5 5 6 6 7
11 10 9 9 8 8 8 7 7 7 7 6 6 6 6 6 6 6 7 7 7 7 8 8 8 8 8 8 7 7 6 6 5 4 4 4 5 5 6 7 7 8 8
13 12 12 12 11 11 10 9 9 9 8 8 8 7 7 7 7 8 8 8 8 8 8 9 9 9 9 8 8 8 7 6 6 6 6 7 7 8 8 8 9 9 9
15 14 14 13 13 13 12 12 11 11 10 10 9 9 9 8 9 9 9 9 9 9 9 9 10 10 10 9 9 8 8 8 8 8 8 9 9 9 9 9 9 9 9
17 16 15 15 15 14 13 13 13 12 12 11 11 10 10 10 10 10 10 10 10 10 10 10 10 10 10 10 10 10 10 10 10 10 9 9 10 10 10 9 9 9 9
17 17 16 16 15 15 14 14 14 13 13 12 12 11 11 11 11 11 11 11 11 11 11 11 11 11 11 11 11 11 10 10 10 10 10 10 10 10 10 10 9 9 9
17 17 16 16 15 15 15 14 14 13 13 13 13 12 12 12 11 11 11 12 12 12 12 12 12 11 11 11 11 10 10 10 10 10 10 10 9 9 9 8 8 7 7
Wind_Direction
253 256 256 255 256 256 253 254 253 251 252 252 254 254 256 258 260 263 265 267 270 272 274 276 277 278 278 280 280 281 282 282 283 284 284 286 286 287 287 288 289 290 290
254 257 256 255 252 253 253 253 252 251 253 253 254 255 257 260 262 266 268 270 273 274 276 277 278 279 280 281 281 282 283 284 285 286 286 287 288 288 289 290 290 290 291
253 255 255 256 255 255 254 254 253 253 253 252 255 258 261 263 265 267 269 272 274 275 277 279 279 280 281 282 283 284 285 285 286 287 287 288 289 290 291 291 291 292 293
255 256 256 256 256 256 256 254 254 255 258 259 260 262 264 266 269 270 271 272 274 276 278 279 281 282 283 283 284 285 286 286 287 287 287 289 289 290 292 293 294 295 295
255 255 254 253 254 254 254 255 258 261 262 264 266 268 270 270 271 272 273 275 276 277 279 280 281 282 283 284 285 285 286 286 287 288 289 289 290 291 292 294 295 296 297
253 252 253 254 255 256 257 260 262 264 265 266 268 269 270 271 272 273 275 276 277 278 279 281 282 283 285 285 286 287 287 287 287 288 289 290 291 292 293 295 296 297 300
257 257 258 258 260 260 261 263 265 266 268 270 270 270 271 273 274 275 276 277 278 280 281 282 284 284 285 287 288 288 289 289 289 289 289 291 292 293 295 297 298 300 303
265 262 263 265 265 265 266 267 269 270 271 272 272 273 273 274 274 276 277 277 279 281 282 283 284 285 287 289 290 290 290 290 291 291 291 293 294 295 297 299 301 303 304
269 269 268 270 271 271 272 273 273 272 272 273 274 274 275 276 276 276 277 277 279 280 281 283 285 287 289 290 290 291 292 293 293 293 294 296 297 299 300 301 302 303 305
272 274 274 273 274 276 276 276 276 275 275 276 277 277 277 277 277 277 278 278 280 282 283 285 286 288 289 290 290 292 292 293 295 296 297 299 300 301 302 302 303 305 307
273 274 275 276 276 275 275 276 276 276 276 276 277 278 278 277 277 277 278 279 281 283 285 286 287 289 290 290 292 293 293 294 296 297 299 301 301 302 302 302 304 305 309
274 275 277 278 278 278 279 278 277 277 277 277 277 278 278 278 278 279 280 282 283 284 286 287 288 290 291 292 294 295 295 296 297 298 300 302 302 303 303 304 306 308 311
277 277 279 279 281 280 280 279 278 277 277 277 277 278 278 279 279 282 283 285 285 286 287 289 290 291 292 294 295 297 298 298 299 299 301 303 304 304 306 309 311 312 314
282 282 282 284 286 285 285 283 280 278 277 277 277 277 278 280 283 286 289 290 289 289 290 291 293 294 295 296 297 299 300 301 302 304 304 305 306 308 310 312 314 317 321
288 287 288 289 291 291 290 287 284 283 280 278 277 277 279 283 287 290 293 294 295 295 297 300 301 300 300 299 300 301 303 304 307 308 308 309 312 313 315 316 318 324 329
302 297 297 297 296 295 295 293 290 288 286 283 283 284 288 291 295 298 300 302 302 303 305 307 306 304 303 304 304 304 306 308 311 313 314 316 319 322 326 329 330 333 337
340 336 332 324 317 315 312 311 309 307 307 306 305 306 307 308 309 311 315 315 314 312 312 311 311 311 312 312 312 312 312 314 317 318 321 325 329 331 336 341 343 347 354
27 25 20 16 12 10 10 8 0 352 348 344 338 334 331 325 324 325 327 327 324 323 322 323 323 323 322 322 322 322 321 323 325 326 328 334 341 346 352 357 5 14 24
44 45 41 43 48 49 46 39 28 25 25 23 21 13 4 356 351 350 348 344 342 340 339 338 337 336 336 335 335 334 333 332 333 335 339 346 353 2 14 25 37 50 55
57 57 56 57 59 57 54 49 46 47 50 47 43 36 31 27 21 13 7 3 0 358 356 354 353 352 352 350 350 349 349 350 352 354 360 9 22 37 47 57 65 70 69
62 62 61 61 61 61 61 61 59 58 57 54 51 48 42 39 34 25 20 18 16 13 10 8 7 7 7 5 6 8 10 14 20 29 38 48 60 67 72 77 78 77 74
65 65 64 64 64 64 63 63 61 59 58 57 54 49 46 45 41 36 31 27 24 22 20 20 22 22 22 23 25 27 32 39 49 57 65 73 77 80 84 84 83 81 78
66 66 66 65 65 65 64 63 62 61 60 58 55 53 51 48 44 39 35 32 31 31 31 32 32 33 34 35 37 43 51 59 66 71 76 80 83 87 88 87 85 83 79
66 66 66 65 65 64 64 64 63 61 59 57 55 52 50 48 46 42 40 39 39 39 39 39 39 40 42 44 49 55 62 67 71 74 78 82 86 88 88 87 86 83 79
64 64 63 63 63 63 62 62 60 58 56 54 53 51 49 48 46 45 44 43 42 42 43 44 46 46 48 50 54 59 64 68 71 74 78 82 86 87 86 85 82 79 73
61 61 60 59 59 59 59 59 57 55 53 52 50 50 49 48 47 46 45 45 44 45 46 47 48 49 49 52 56 61 65 68 70 73 76 79 81 81 80 77 73 66 56
Height
5762 5763 5764 5765 5766 5766 5766 5766 5766 5767 5768 5769 5770 5772 5773 5773 5774 5774 5774 5773 5772 5771 5770 5769 5768 5766 5764 5762 5759 5756 5754 5751 5748 5745 5742 5738 5735 5732 5729 5726 5722 5719 5716
5756 5757 5757 5758 5759 5759 5759 5759 5760 5760 5761 5762 5763 5764 5765 5765 5765 5765 5764 5764 5763 5762 5761 5759 5757 5755 5753 5751 5748 5746 5743 5740 5737 5734 5730 5728 5725 5722 5719 5716 5712 5709 5706
5750 5750 5751 5751 5752 5753 5753 5753 5754 5754 5754 5755 5756 5756 5757 5756 5756 5756 5755 5754 5753 5752 5751 5749 5747 5745 5743 5740 5738 5735 5732 5729 5726 5723 5720 5718 5715 5712 5709 5706 5703 5700 5697
5743 5743 5744 5745 5745 5746 5746 5746 5746 5747 5747 5748 5748 5748 5748 5748 5748 5747 5746 5745 5744 5743 5741 5739 5737 5735 5733 5731 5728 5725 5723 5720 5717 5714 5711 5709 5706 5703 5701 5698 5695 5692 5689
5737 5737 5738 5738 5739 5739 5739 5740 5740 5740 5740 5740 5740 5740 5740 5740 5739 5738 5738 5737 5735 5734 5732 5730 5728 5726 5724 5721 5719 5716 5713 5711 5708 5705 5703 5701 5698 5695 5693 5690 5687 5684 5681
5731 5731 5731 5732 5732 5732 5732 5733 5732 5732 5732 5732 5732 5732 5732 5731 5731 5730 5729 5728 5727 5725 5723 5722 5719 5717 5715 5713 5710 5708 5705 5703 5700 5698 5695 5693 5690 5688 5685 5683 5680 5677 5674
5725 5725 5725 5725 5726 5726 5726 5726 5725 5725 5725 5724 5724 5724 5724 5723 5723 5722 5721 5720 5719 5717 5715 5713 5711 5709 5707 5705 5702 5699 5697 5695 5693 5691 5688 5686 5683 5681 5679 5676 5673 5670 5667
5719 5719 5719 5719 5719 5719 5719 5719 5719 5718 5718 5717 5717 5717 5716 5716 5715 5715 5714 5712 5711 5709 5707 5706 5703 5701 5699 5697 5695 5692 5690 5688 5686 5684 5682 5679 5677 5675 5672 5670 5667 5665 5662
5714 5714 5714 5714 5714 5713 5713 5713 5712 5712 5711 5711 5710 5710 5709 5709 5708 5707 5706 5705 5703 5702 5700 5698 5696 5694 5692 5690 5688 5686 5684 5682 5680 5678 5676 5674 5672 5669 5667 5665 5662 5660 5657
5709 5709 5709 5709 5708 5708 5707 5707 5706 5706 5706 5705 5704 5703 5703 5702 5701 5700 5699 5698 5697 5695 5693 5691 5690 5688 5686 5684 5682 5680 5679 5677 5675 5673 5671 5669 5667 5664 5662 5660 5657 5655 5652
5705 5704 5704 5704 5703 5703 5702 5702 5701 5701 5700 5700 5699 5698 5697 5696 5695 5694 5693 5692 5690 5689 5687 5685 5684 5682 5681 5679 5677 5675 5674 5672 5670 5668 5666 5664 5662 5660 5658 5656 5653 5651 5649
5701 5701 5700 5700 5699 5699 5698 5697 5697 5696 5695 5694 5694 5693 5692 5691 5690 5689 5688 5687 5685 5684 5682 5680 5679 5677 5676 5674 5673 5671 5669 5668 5666 5664 5662 5660 5658 5656 5654 5652 5650 5647 5645
5698 5697 5697 5696 5695 5695 5694 5693 5692 5691 5691 5690 5689 5688 5687 5686 5685 5684 5683 5682 5680 5679 5677 5676 5675 5673 5672 5670 5668 5667 5665 5663 5662 5660 5658 5656 5654 5652 5650 5648 5646 5644 5643
5694 5694 5693 5692 5691 5690 5689 5689 5688 5687 5686 5686 5685 5684 5684 5683 5682 5680 5679 5678 5676 5675 5674 5672 5671 5669 5668 5666 5665 5663 5661 5660 5658 5656 5654 5652 5650 5648 5647 5645 5643 5642 5640
5691 5691 5690 5689 5688 5687 5686 5685 5684 5684 5683 5683 5682 5681 5680 5679 5678 5677 5676 5675 5673 5672 5670 5669 5668 5666 5665 5663 5661 5660 5658 5656 5654 5652 5651 5649 5647 5645 5644 5642 5641 5639 5638
5689 5688 5687 5686 5685 5684 5684 5683 5682 5682 5681 5680 5679 5679 5678 5677 5676 5674 5673 5672 5671 5669 5668 5666 5665 5663 5662 5660 5658 5656 5655 5653 5651 5649 5648 5646 5645 5643 5642 5640 5639 5638 5637
5687 5686 5685 5685 5684 5683 5682 5682 5681 5680 5679 5678 5677 5677 5676 5675 5674 5673 5672 5671 5669 5668 5666 5664 5663 5661 5659 5657 5655 5653 5652 5650 5648 5647 5646 5644 5643 5642 5640 5639 5638 5637 5636
5687 5686 5685 5684 5683 5682 5682 5681 5680 5680 5679 5678 5677 5676 5675 5674 5673 5672 5671 5669 5668 5666 5664 5663 5661 5659 5657 5655 5653 5651 5649 5648 5647 5645 5644 5643 5642 5641 5640 5639 5638 5637 5636
5687 5686 5685 5684 5683 5683 5682 5681 5680 5679 5678 5677 5677 5676 5675 5674 5673 5671 5670 5668 5667 5665 5663 5661 5659 5657 5655 5653 5651 5649 5648 5646 5645 5644 5643 5642 5641 5640 5639 5639 5638 5637 5636
5688 5687 5686 5685 5684 5684 5683 5682 5681 5680 5679 5678 5677 5676 5675 5674 5673 5671 5670 5668 5666 5664 5662 5661 5659 5656 5654 5652 5651 5649 5647 5646 5644 5643 5642 5642 5641 5640 5640 5639 5639 5638 5638
5690 5689 5688 5687 5686 5685 5684 5683 5682 5681 5680 5679 5678 5677 5676 5675 5673 5672 5670 5668 5666 5664 5663 5661 5658 5656 5654 5652 5650 5648 5647 5645 5644 5643 5643 5642 5641 5641 5641 5640 5640 5640 5639
5693 5692 5691 5690 5689 5687 5686 5685 5684 5683 5682 5681 5679 5678 5677 5676 5674 5673 5671 5669 5667 5665 5663 5661 5659 5657 5655 5653 5651 5649 5648 5646 5645 5644 5644 5643 5643 5643 5642 5642 5642 5642 5641
5696 5695 5694 5693 5691 5690 5689 5688 5686 5685 5684 5683 5681 5680 5679 5677 5676 5674 5672 5670 5668 5666 5664 5662 5660 5658 5656 5654 5652 5651 5649 5648 5647 5646 5646 5645 5645 5645 5644 5644 5644 5644 5643
5700 5699 5697 5696 5695 5693 5692 5691 5689 5688 5687 5685 5684 5682 5681 5679 5678 5676 5674 5672 5670 5668 5666 5664 5662 5660 5658 5656 5654 5653 5652 5651 5650 5649 5648 5648 5647 5647 5647 5647 5646 5646 5645
5704 5702 5701 5700 5698 5697 5695 5694 5693 5691 5690 5688 5686 5685 5683 5682 5680 5678 5676 5674 5672 5670 5668 5666 5664 5662 5661 5659 5657 5656 5655 5654 5653 5652 5651 5651 5650 5650 5650 5649 5649 5648 5647
5708 5706 5705 5703 5702 5700 5699 5697 5696 5694 5693 5691 5689 5688 5686 5684 5683 5681 5679 5677 5675 5673 5671 5669 5667 5665 5663 5662 5660 5659 5658 5657 5656 5655 5654 5654 5653 5653 5652 5652 5651 5650 5649